User: anonymous   Login
Location: Waldport
(44.4270°N, 124.0680°W)
Time: 09:54:54
(UTC-07:00)
Language:

Cosmos 1023 Rocket - Orbit

View from above orbital plane
View from above orbital plane
View from above satellite
View from above satellite

Ground track
Ground track

The orbit data is extracted from the following two-line orbital elements,

1 10962U 78063B   15182.20951693  .00000044  00000-0  21832-4 0  9992
2 10962 074.0806 102.3510 0025639 192.1912 167.8627 14.40917566942596
Epoch (UTC): 01 July 2015 05:01:42
Eccentricity: 0.0025639
inclination: 74.0806°
perigee height: 737 km
apogee height: 774 km
right ascension of ascending node: 102.3510°
argument of perigee: 192.1912°
revolutions per day: 14.40917566
mean anomaly at epoch: 167.8627°
orbit number at epoch: 94259

The dashed part of the orbit path shows where the satellite is in the earth's shadow,  

DLR